Private Wetterstation Wechselburg
Wetterdaten: Mittwoch, 28.03.2018
Datum Zeit Temp. +2m Bodentemp. Temp.+5cm Temp. Wind Windchill X Diff Temp. Feuchte +2m Feuchte +5cm Luftdruck Regen Wind Richtung Richtung Sonnenschein Taupunkt Windchill Windben
28.03.2018 00:00 3,5 C 4,8 C 2,9 C 3,3 C 3,0 C 0,0 C 76 % 82 % 1011,6 hPa 0,0 l/m 0,0 km/h (0 Bft) N 360 0 min -0,3 C 3,0 C 0,0 km/h (0 Bft)
28.03.2018 00:05 3,4 C 4,8 C 3,1 C 3,3 C 3,2 C 0,0 C 76 % 82 % 1011,6 hPa 0,0 l/m 0,0 km/h (0 Bft) N 360 0 min -0,4 C 3,2 C 0,0 km/h (0 Bft)
28.03.2018 00:10 3,5 C 4,8 C 3,1 C 3,4 C 3,3 C 0,0 C 76 % 82 % 1011,6 hPa 0,0 l/m 0,0 km/h (0 Bft) N 360 0 min -0,3 C 3,3 C 0,0 km/h (0 Bft)
28.03.2018 00:15 3,5 C 4,8 C 3,2 C 3,4 C 3,3 C 0,0 C 76 % 82 % 1011,8 hPa 0,0 l/m 0,0 km/h (0 Bft) N 360 0 min -0,3 C 3,3 C 0,0 km/h (0 Bft)
28.03.2018 00:20 3,5 C 4,8 C 3,2 C 3,5 C 3,4 C 0,0 C 76 % 82 % 1011,8 hPa 0,0 l/m 0,0 km/h (0 Bft) N 360 0 min -0,3 C 3,4 C 0,0 km/h (0 Bft)
28.03.2018 00:25 3,5 C 4,7 C 3,2 C 3,5 C 3,4 C 0,0 C 76 % 82 % 1011,8 hPa 0,0 l/m 0,0 km/h (0 Bft) N 360 0 min -0,3 C 3,4 C 0,0 km/h (0 Bft)
28.03.2018 00:30 3,5 C 4,7 C 3,3 C 3,5 C 3,4 C 0,0 C 76 % 81 % 1011,8 hPa 0,0 l/m 0,0 km/h (0 Bft) N 360 0 min -0,3 C 3,4 C 0,0 km/h (0 Bft)
28.03.2018 00:35 3,5 C 4,7 C 3,3 C 3,5 C 3,4 C 0,0 C 76 % 82 % 1011,7 hPa 0,0 l/m 0,0 km/h (0 Bft) N 360 0 min -0,3 C 3,4 C 0,0 km/h (0 Bft)
28.03.2018 00:40 3,5 C 4,7 C 3,3 C 3,4 C 3,3 C 0,0 C 76 % 82 % 1011,7 hPa 0,0 l/m 0,0 km/h (0 Bft) N 360 0 min -0,3 C 3,3 C 0,0 km/h (0 Bft)
28.03.2018 00:45 3,5 C 4,7 C 3,2 C 3,4 C 3,3 C 0,0 C 77 % 82 % 1011,7 hPa 0,0 l/m 0,2 km/h (0 Bft) O-NO 67 0 min -0,1 C 3,3 C 1,8 km/h (1 Bft)
28.03.2018 00:50 3,5 C 4,7 C 3,3 C 3,4 C 3,3 C 0,0 C 77 % 82 % 1011,7 hPa 0,0 l/m 0,2 km/h (0 Bft) O-NO 67 0 min -0,1 C 3,3 C 0,0 km/h (0 Bft)
28.03.2018 00:55 3,5 C 4,7 C 3,2 C 3,4 C 3,3 C 0,0 C 77 % 82 % 1011,4 hPa 0,0 l/m 0,2 km/h (0 Bft) O-NO 67 0 min -0,1 C 3,3 C 0,0 km/h (0 Bft)
28.03.2018 01:00 3,5 C 4,7 C 3,2 C 3,4 C 3,3 C 0,0 C 77 % 82 % 1011,4 hPa 0,0 l/m 0,3 km/h (0 Bft) SW 225 0 min -0,1 C 3,3 C 2,6 km/h (1 Bft)
28.03.2018 01:05 3,5 C 4,7 C 3,1 C 3,4 C 3,1 C 0,0 C 77 % 82 % 1011,4 hPa 0,0 l/m 0,6 km/h (0 Bft) W-SW 247 0 min -0,1 C 3,1 C 2,7 km/h (1 Bft)
28.03.2018 01:10 3,4 C 4,7 C 3,0 C 3,2 C 2,9 C 0,0 C 77 % 82 % 1011,4 hPa 0,0 l/m 0,3 km/h (0 Bft) W-SW 247 0 min -0,2 C 2,9 C 0,0 km/h (0 Bft)
28.03.2018 01:15 3,4 C 4,7 C 3,1 C 3,2 C 2,9 C 0,0 C 77 % 83 % 1011,6 hPa 0,0 l/m 0,0 km/h (0 Bft) W-SW 247 0 min -0,2 C 2,9 C 0,0 km/h (0 Bft)
28.03.2018 01:20 3,3 C 4,7 C 3,1 C 3,2 C 2,9 C 0,0 C 78 % 83 % 1011,6 hPa 0,0 l/m 0,0 km/h (0 Bft) W-SW 247 0 min -0,2 C 2,9 C 0,0 km/h (0 Bft)
28.03.2018 01:25 3,3 C 4,7 C 3,1 C 3,2 C 3,0 C 0,0 C 78 % 83 % 1011,6 hPa 0,0 l/m 0,0 km/h (0 Bft) W-SW 247 0 min -0,2 C 3,0 C 0,0 km/h (0 Bft)
28.03.2018 01:30 3,3 C 4,7 C 3,1 C 3,2 C 3,1 C 0,0 C 78 % 83 % 1011,6 hPa 0,0 l/m 0,0 km/h (0 Bft) W-SW 247 0 min -0,2 C 3,1 C 0,0 km/h (0 Bft)
28.03.2018 01:35 3,5 C 4,7 C 3,2 C 3,4 C 3,2 C 0,0 C 79 % 83 % 1011,3 hPa 0,0 l/m 0,0 km/h (0 Bft) W-SW 247 0 min 0,2 C 3,2 C 0,0 km/h (0 Bft)
28.03.2018 01:40 3,5 C 4,7 C 3,2 C 3,4 C 3,2 C 0,0 C 79 % 83 % 1011,3 hPa 0,0 l/m 0,0 km/h (0 Bft) W-SW 247 0 min 0,2 C 3,2 C 0,0 km/h (0 Bft)
28.03.2018 01:45 3,5 C 4,7 C 3,4 C 3,4 C 3,1 C 0,0 C 79 % 84 % 1011,3 hPa 0,0 l/m 0,0 km/h (0 Bft) W-SW 247 0 min 0,2 C 3,1 C 0,0 km/h (0 Bft)
28.03.2018 01:50 3,6 C 4,8 C 3,3 C 3,4 C 2,9 C 0,0 C 79 % 84 % 1011,3 hPa 0,0 l/m 0,0 km/h (0 Bft) W-SW 247 0 min 0,3 C 2,9 C 0,0 km/h (0 Bft)
28.03.2018 01:55 3,6 C 4,7 C 3,4 C 3,3 C 2,8 C 0,0 C 79 % 84 % 1011,2 hPa 0,0 l/m 0,0 km/h (0 Bft) W-SW 247 0 min 0,3 C 2,8 C 0,0 km/h (0 Bft)
28.03.2018 02:00 3,7 C 4,8 C 3,3 C 3,4 C 2,9 C 0,0 C 79 % 85 % 1011,2 hPa 0,0 l/m 0,3 km/h (0 Bft) W-SW 247 0 min 0,4 C 2,9 C 3,5 km/h (1 Bft)
28.03.2018 02:05 3,7 C 4,8 C 3,3 C 3,4 C 2,8 C 0,0 C 80 % 85 % 1011,2 hPa 0,0 l/m 1,0 km/h (0 Bft) NO 45 0 min 0,6 C 2,8 C 4,0 km/h (1 Bft)
28.03.2018 02:10 3,7 C 4,8 C 3,3 C 3,4 C 2,8 C 0,0 C 80 % 85 % 1011,2 hPa 0,0 l/m 1,0 km/h (0 Bft) O-SO 112 0 min 0,6 C 2,8 C 0,0 km/h (0 Bft)
28.03.2018 02:15 3,6 C 4,8 C 3,3 C 3,3 C 2,8 C 0,0 C 80 % 85 % 1010,9 hPa 0,0 l/m 0,2 km/h (0 Bft) O-SO 112 0 min 0,5 C 2,8 C 0,0 km/h (0 Bft)
28.03.2018 02:20 3,6 C 4,8 C 3,3 C 3,3 C 2,8 C 0,0 C 80 % 86 % 1010,9 hPa 0,0 l/m 0,0 km/h (0 Bft) O-NO 67 0 min 0,5 C 2,8 C 0,0 km/h (0 Bft)
28.03.2018 02:25 3,7 C 4,8 C 3,2 C 3,5 C 3,0 C 0,0 C 81 % 86 % 1010,9 hPa 0,0 l/m 0,0 km/h (0 Bft) NO 45 0 min 0,7 C 3,0 C 0,0 km/h (0 Bft)
28.03.2018 02:30 3,7 C 4,8 C 3,3 C 3,5 C 3,1 C 0,0 C 81 % 86 % 1010,9 hPa 0,0 l/m 0,0 km/h (0 Bft) N-NO 22 0 min 0,7 C 3,1 C 0,0 km/h (0 Bft)
28.03.2018 02:35 3,7 C 4,8 C 3,2 C 3,5 C 3,2 C 0,0 C 81 % 86 % 1010,6 hPa 0,0 l/m 0,2 km/h (0 Bft) O-SO 112 0 min 0,7 C 3,2 C 0,0 km/h (0 Bft)
28.03.2018 02:40 3,6 C 4,8 C 3,2 C 3,5 C 3,2 C 0,0 C 81 % 86 % 1010,6 hPa 0,0 l/m 0,2 km/h (0 Bft) O-SO 112 0 min 0,7 C 3,2 C 0,0 km/h (0 Bft)
28.03.2018 02:45 3,6 C 4,8 C 3,2 C 3,5 C 3,2 C 0,0 C 81 % 86 % 1010,6 hPa 0,0 l/m 0,2 km/h (0 Bft) O-NO 67 0 min 0,7 C 3,2 C 0,0 km/h (0 Bft)
28.03.2018 02:50 3,7 C 4,8 C 3,2 C 3,6 C 3,3 C 0,0 C 81 % 86 % 1010,6 hPa 0,0 l/m 0,0 km/h (0 Bft) O-NO 67 0 min 0,7 C 3,3 C 0,0 km/h (0 Bft)
28.03.2018 02:55 3,7 C 4,8 C 3,3 C 3,6 C 3,3 C 0,0 C 82 % 86 % 1010,6 hPa 0,0 l/m 0,0 km/h (0 Bft) N-NW 337 0 min 0,9 C 3,3 C 0,0 km/h (0 Bft)
28.03.2018 03:00 3,6 C 4,8 C 3,2 C 3,5 C 3,3 C 0,0 C 82 % 86 % 1010,6 hPa 0,0 l/m 0,3 km/h (0 Bft) N-NW 337 0 min 0,8 C 3,3 C 2,1 km/h (1 Bft)
28.03.2018 03:05 3,5 C 4,8 C 3,2 C 3,4 C 3,2 C 0,0 C 82 % 86 % 1010,6 hPa 0,0 l/m 0,5 km/h (0 Bft) N-NW 337 0 min 0,7 C 3,2 C 0,0 km/h (0 Bft)
28.03.2018 03:10 3,5 C 4,8 C 3,2 C 3,4 C 3,1 C 0,0 C 82 % 86 % 1010,6 hPa 0,0 l/m 0,6 km/h (0 Bft) N-NW 337 0 min 0,7 C 3,1 C 2,3 km/h (1 Bft)
28.03.2018 03:15 3,5 C 4,8 C 3,1 C 3,3 C 3,0 C 0,0 C 82 % 86 % 1010,0 hPa 0,0 l/m 0,3 km/h (0 Bft) N-NO 22 0 min 0,7 C 3,0 C 0,0 km/h (0 Bft)
28.03.2018 03:20 3,4 C 4,8 C 3,0 C 3,2 C 2,9 C 0,0 C 82 % 86 % 1010,0 hPa 0,0 l/m 0,3 km/h (0 Bft) N-NO 22 0 min 0,6 C 2,9 C 0,0 km/h (0 Bft)
28.03.2018 03:25 3,3 C 4,8 C 3,1 C 3,2 C 3,0 C 0,0 C 82 % 87 % 1010,0 hPa 0,0 l/m 0,0 km/h (0 Bft) N-NO 22 0 min 0,5 C 3,0 C 0,0 km/h (0 Bft)
28.03.2018 03:30 3,3 C 4,8 C 3,1 C 3,2 C 3,1 C 0,0 C 82 % 87 % 1010,0 hPa 0,0 l/m 0,0 km/h (0 Bft) N-NW 337 0 min 0,5 C 3,1 C 0,0 km/h (0 Bft)
28.03.2018 03:35 3,5 C 4,8 C 3,2 C 3,4 C 3,3 C 0,0 C 83 % 87 % 1010,5 hPa 0,0 l/m 0,0 km/h (0 Bft) N-NW 337 0 min 0,9 C 3,3 C 0,0 km/h (0 Bft)
28.03.2018 03:40 3,5 C 4,7 C 3,2 C 3,4 C 3,3 C 0,0 C 83 % 87 % 1010,5 hPa 0,0 l/m 0,0 km/h (0 Bft) N-NW 337 0 min 0,9 C 3,3 C 0,0 km/h (0 Bft)
28.03.2018 03:45 3,6 C 4,7 C 3,2 C 3,5 C 3,4 C 0,0 C 83 % 87 % 1010,5 hPa 0,0 l/m 0,0 km/h (0 Bft) N-NW 337 0 min 1,0 C 3,4 C 0,0 km/h (0 Bft)
28.03.2018 03:50 3,6 C 4,7 C 3,2 C 3,5 C 3,4 C 0,0 C 83 % 87 % 1010,5 hPa 0,0 l/m 0,0 km/h (0 Bft) N-NO 22 0 min 1,0 C 3,4 C 0,0 km/h (0 Bft)
28.03.2018 03:55 3,6 C 4,7 C 3,1 C 3,5 C 3,3 C 0,0 C 83 % 87 % 1009,8 hPa 0,0 l/m 0,0 km/h (0 Bft) N-NO 22 0 min 1,0 C 3,3 C 0,0 km/h (0 Bft)
28.03.2018 04:00 3,5 C 4,7 C 3,0 C 3,4 C 3,3 C 0,0 C 83 % 87 % 1009,8 hPa 0,0 l/m 0,0 km/h (0 Bft) N-NO 22 0 min 0,9 C 3,3 C 0,0 km/h (0 Bft)
28.03.2018 04:05 3,5 C 4,8 C 3,1 C 3,4 C 3,1 C 0,0 C 82 % 87 % 1009,8 hPa 0,0 l/m 0,0 km/h (0 Bft) N-NW 337 0 min 0,7 C 3,1 C 0,0 km/h (0 Bft)
28.03.2018 04:10 3,5 C 4,7 C 3,1 C 3,4 C 3,1 C 0,0 C 83 % 87 % 1009,8 hPa 0,0 l/m 0,0 km/h (0 Bft) N-NW 337 0 min 0,9 C 3,1 C 0,0 km/h (0 Bft)
28.03.2018 04:15 3,4 C 4,7 C 3,0 C 3,3 C 3,0 C 0,0 C 83 % 87 % 1009,3 hPa 0,0 l/m 0,0 km/h (0 Bft) N-NW 337 0 min 0,8 C 3,0 C 0,0 km/h (0 Bft)
28.03.2018 04:20 3,4 C 4,7 C 2,9 C 3,3 C 3,0 C 0,0 C 83 % 87 % 1009,3 hPa 0,0 l/m 0,0 km/h (0 Bft) N-NW 337 0 min 0,8 C 3,0 C 0,0 km/h (0 Bft)
28.03.2018 04:25 3,4 C 4,7 C 3,0 C 3,3 C 3,0 C 0,0 C 83 % 87 % 1009,3 hPa 0,0 l/m 0,0 km/h (0 Bft) N-NO 22 0 min 0,8 C 3,0 C 0,0 km/h (0 Bft)
28.03.2018 04:30 3,5 C 4,7 C 3,1 C 3,3 C 3,0 C 0,0 C 83 % 87 % 1009,3 hPa 0,0 l/m 0,0 km/h (0 Bft) N-NO 22 0 min 0,9 C 3,0 C 0,0 km/h (0 Bft)
28.03.2018 04:35 3,4 C 4,7 C 3,1 C 3,3 C 3,1 C 0,0 C 83 % 87 % 1009,1 hPa 0,0 l/m 0,0 km/h (0 Bft) N-NO 22 0 min 0,8 C 3,1 C 0,0 km/h (0 Bft)
28.03.2018 04:40 3,5 C 4,7 C 3,1 C 3,4 C 3,2 C 0,0 C 83 % 87 % 1009,1 hPa 0,0 l/m 0,0 km/h (0 Bft) N-NW 337 0 min 0,9 C 3,2 C 0,0 km/h (0 Bft)
28.03.2018 04:45 3,4 C 4,7 C 3,1 C 3,4 C 3,3 C 0,0 C 83 % 87 % 1009,1 hPa 0,0 l/m 0,0 km/h (0 Bft) N-NW 337 0 min 0,8 C 3,3 C 0,0 km/h (0 Bft)
28.03.2018 04:50 3,5 C 4,7 C 3,1 C 3,4 C 3,3 C 0,0 C 83 % 87 % 1009,1 hPa 0,0 l/m 0,0 km/h (0 Bft) N-NW 337 0 min 0,9 C 3,3 C 0,0 km/h (0 Bft)
28.03.2018 04:55 3,5 C 4,7 C 3,1 C 3,4 C 3,3 C 0,0 C 83 % 87 % 1008,8 hPa 0,0 l/m 0,0 km/h (0 Bft) N-NO 22 0 min 0,9 C 3,3 C 0,0 km/h (0 Bft)
28.03.2018 05:00 3,5 C 4,7 C 3,1 C 3,5 C 3,4 C 0,0 C 83 % 87 % 1008,8 hPa 0,0 l/m 0,0 km/h (0 Bft) NO 45 0 min 0,9 C 3,4 C 0,0 km/h (0 Bft)
28.03.2018 05:05 3,5 C 4,7 C 3,1 C 3,5 C 3,4 C 0,0 C 83 % 87 % 1008,8 hPa 0,0 l/m 0,0 km/h (0 Bft) NW 315 0 min 0,9 C 3,4 C 0,0 km/h (0 Bft)
28.03.2018 05:10 3,6 C 4,7 C 3,1 C 3,5 C 3,4 C 0,0 C 83 % 87 % 1008,8 hPa 0,0 l/m 0,0 km/h (0 Bft) NW 315 0 min 1,0 C 3,4 C 0,0 km/h (0 Bft)
28.03.2018 05:15 3,6 C 4,7 C 3,1 C 3,5 C 3,4 C 0,0 C 82 % 87 % 1009,4 hPa 0,0 l/m 0,0 km/h (0 Bft) NW 315 0 min 0,8 C 3,4 C 0,0 km/h (0 Bft)
28.03.2018 05:20 3,7 C 4,7 C 3,2 C 3,6 C 3,5 C 0,0 C 82 % 87 % 1009,4 hPa 0,0 l/m 0,0 km/h (0 Bft) NW 315 0 min 0,9 C 3,5 C 0,0 km/h (0 Bft)
28.03.2018 05:25 3,6 C 4,6 C 3,2 C 3,6 C 3,5 C 0,0 C 82 % 87 % 1009,4 hPa 0,0 l/m 0,2 km/h (0 Bft) O-NO 67 0 min 0,8 C 3,5 C 0,0 km/h (0 Bft)
28.03.2018 05:30 3,7 C 4,6 C 3,2 C 3,7 C 3,6 C 0,0 C 82 % 87 % 1009,4 hPa 0,0 l/m 0,2 km/h (0 Bft) O-NO 67 0 min 0,9 C 3,6 C 0,0 km/h (0 Bft)
28.03.2018 05:35 3,7 C 4,6 C 3,3 C 3,7 C 3,7 C 0,0 C 82 % 87 % 1008,9 hPa 0,0 l/m 0,0 km/h (0 Bft) O-NO 67 0 min 0,9 C 3,7 C 0,0 km/h (0 Bft)
28.03.2018 05:40 3,8 C 4,5 C 3,2 C 3,8 C 3,7 C 0,0 C 82 % 87 % 1008,9 hPa 0,0 l/m 0,0 km/h (0 Bft) O-NO 67 0 min 1,0 C 3,7 C 0,0 km/h (0 Bft)
28.03.2018 05:45 3,7 C 4,5 C 3,3 C 3,7 C 3,7 C 0,0 C 82 % 86 % 1008,9 hPa 0,0 l/m 0,0 km/h (0 Bft) O-NO 67 0 min 0,9 C 3,7 C 0,0 km/h (0 Bft)
28.03.2018 05:50 3,8 C 4,5 C 3,3 C 3,8 C 3,7 C 0,0 C 82 % 86 % 1008,9 hPa 0,0 l/m 0,0 km/h (0 Bft) O-NO 67 0 min 1,0 C 3,7 C 0,0 km/h (0 Bft)
28.03.2018 05:55 3,9 C 4,5 C 3,5 C 3,8 C 3,7 C 0,0 C 81 % 86 % 1008,8 hPa 0,0 l/m 0,0 km/h (0 Bft) O-NO 67 0 min 0,9 C 3,7 C 0,0 km/h (0 Bft)
28.03.2018 06:00 3,9 C 4,5 C 3,6 C 3,9 C 3,8 C 0,0 C 81 % 85 % 1008,8 hPa 0,0 l/m 0,2 km/h (0 Bft) O-NO 67 0 min 0,9 C 3,8 C 0,0 km/h (0 Bft)
28.03.2018 06:05 4,0 C 4,5 C 3,7 C 3,9 C 3,7 C 0,0 C 81 % 85 % 1008,8 hPa 0,0 l/m 0,2 km/h (0 Bft) O 90 0 min 1,0 C 3,7 C 0,0 km/h (0 Bft)
28.03.2018 06:10 4,0 C 4,5 C 3,6 C 3,9 C 3,8 C 0,0 C 81 % 85 % 1008,8 hPa 0,0 l/m 0,0 km/h (0 Bft) O-NO 67 0 min 1,0 C 3,8 C 0,0 km/h (0 Bft)
28.03.2018 06:15 4,1 C 4,5 C 3,7 C 4,0 C 3,8 C 0,0 C 80 % 85 % 1008,3 hPa 0,0 l/m 0,0 km/h (0 Bft) O 90 0 min 1,0 C 3,8 C 0,0 km/h (0 Bft)
28.03.2018 06:20 4,0 C 4,5 C 3,9 C 3,9 C 3,8 C 0,0 C 80 % 84 % 1008,3 hPa 0,0 l/m 0,0 km/h (0 Bft) O-SO 112 0 min 0,9 C 3,8 C 0,0 km/h (0 Bft)
28.03.2018 06:25 4,0 C 4,5 C 3,8 C 3,9 C 3,8 C 0,0 C 80 % 84 % 1008,3 hPa 0,0 l/m 0,0 km/h (0 Bft) O-NO 67 0 min 0,9 C 3,8 C 0,0 km/h (0 Bft)
28.03.2018 06:30 4,0 C 4,5 C 3,7 C 4,0 C 3,9 C 0,0 C 80 % 84 % 1008,3 hPa 0,0 l/m 0,0 km/h (0 Bft) O-NO 67 0 min 0,9 C 3,9 C 0,0 km/h (0 Bft)
28.03.2018 06:35 4,1 C 4,5 C 3,8 C 4,0 C 3,9 C 0,0 C 80 % 84 % 1008,0 hPa 0,0 l/m 0,0 km/h (0 Bft) SO 135 0 min 1,0 C 3,9 C 0,0 km/h (0 Bft)
28.03.2018 06:40 4,1 C 4,5 C 3,9 C 4,1 C 4,0 C 0,0 C 80 % 85 % 1008,0 hPa 0,0 l/m 0,5 km/h (0 Bft) O-SO 112 0 min 1,0 C 4,0 C 0,0 km/h (0 Bft)
28.03.2018 06:45 4,3 C 4,5 C 3,9 C 4,2 C 4,0 C 0,0 C 80 % 84 % 1008,0 hPa 0,0 l/m 0,6 km/h (0 Bft) S 180 0 min 1,2 C 4,0 C 5,5 km/h (1 Bft)
28.03.2018 06:50 4,2 C 4,5 C 3,9 C 4,2 C 4,1 C 0,0 C 80 % 84 % 1008,0 hPa 0,0 l/m 0,2 km/h (0 Bft) O-NO 67 0 min 1,1 C 4,1 C 0,0 km/h (0 Bft)
28.03.2018 06:55 4,3 C 4,5 C 3,9 C 4,3 C 4,2 C 0,0 C 80 % 84 % 1008,1 hPa 0,0 l/m 0,2 km/h (0 Bft) O-NO 67 0 min 1,2 C 4,2 C 0,0 km/h (0 Bft)
28.03.2018 07:00 4,4 C 4,5 C 4,0 C 4,3 C 4,2 C 0,0 C 80 % 84 % 1008,1 hPa 0,0 l/m 0,3 km/h (0 Bft) NO 45 0 min 1,3 C 4,2 C 0,0 km/h (0 Bft)
28.03.2018 07:05 4,5 C 4,5 C 4,1 C 4,4 C 4,3 C 0,0 C 79 % 84 % 1008,1 hPa 0,0 l/m 0,2 km/h (0 Bft) O 90 0 min 1,2 C 4,3 C 0,0 km/h (0 Bft)
28.03.2018 07:10 4,4 C 4,5 C 4,1 C 4,4 C 4,3 C 0,0 C 79 % 83 % 1008,1 hPa 0,0 l/m 0,0 km/h (0 Bft) O-NO 67 0 min 1,1 C 4,3 C 0,0 km/h (0 Bft)
28.03.2018 07:15 4,4 C 4,5 C 4,0 C 4,4 C 4,3 C 0,0 C 79 % 83 % 1008,2 hPa 0,0 l/m 0,0 km/h (0 Bft) O-NO 67 0 min 1,1 C 4,3 C 0,0 km/h (0 Bft)
28.03.2018 07:20 4,4 C 4,5 C 4,0 C 4,4 C 4,3 C 0,0 C 79 % 83 % 1008,2 hPa 0,0 l/m 0,0 km/h (0 Bft) O-NO 67 0 min 1,1 C 4,3 C 0,0 km/h (0 Bft)
28.03.2018 07:25 4,4 C 4,5 C 4,0 C 4,4 C 4,3 C 0,0 C 79 % 83 % 1008,2 hPa 0,0 l/m 0,0 km/h (0 Bft) O-NO 67 0 min 1,1 C 4,3 C 0,0 km/h (0 Bft)
28.03.2018 07:30 4,5 C 4,5 C 4,0 C 4,4 C 4,3 C 0,0 C 79 % 84 % 1008,2 hPa 0,0 l/m 0,0 km/h (0 Bft) O-NO 67 0 min 1,2 C 4,3 C 0,0 km/h (0 Bft)
28.03.2018 07:35 4,5 C 4,5 C 3,9 C 4,4 C 4,2 C 0,0 C 79 % 84 % 1007,9 hPa 0,0 l/m 0,0 km/h (0 Bft) O-NO 67 0 min 1,2 C 4,2 C 0,0 km/h (0 Bft)
28.03.2018 07:40 4,5 C 4,5 C 3,9 C 4,4 C 4,1 C 0,0 C 79 % 84 % 1007,9 hPa 0,0 l/m 0,0 km/h (0 Bft) O-NO 67 0 min 1,2 C 4,1 C 0,0 km/h (0 Bft)
28.03.2018 07:45 4,4 C 4,5 C 3,9 C 4,2 C 3,9 C 0,0 C 79 % 84 % 1007,9 hPa 0,0 l/m 0,0 km/h (0 Bft) O-NO 67 0 min 1,1 C 3,9 C 0,0 km/h (0 Bft)
28.03.2018 07:50 4,4 C 4,6 C 3,9 C 4,2 C 3,8 C 0,0 C 79 % 85 % 1007,9 hPa 0,0 l/m 0,0 km/h (0 Bft) O-NO 67 0 min 1,1 C 3,8 C 0,0 km/h (0 Bft)
28.03.2018 07:55 4,4 C 4,6 C 3,8 C 4,1 C 3,6 C 0,0 C 80 % 85 % 1007,9 hPa 0,0 l/m 0,0 km/h (0 Bft) O-NO 67 0 min 1,3 C 3,6 C 1,6 km/h (1 Bft)
28.03.2018 08:00 4,4 C 4,5 C 3,9 C 4,1 C 3,5 C 0,0 C 80 % 85 % 1007,9 hPa 0,0 l/m 0,0 km/h (0 Bft) O-NO 67 0 min 1,3 C 3,5 C 0,0 km/h (0 Bft)
28.03.2018 08:05 4,4 C 4,6 C 4,0 C 4,1 C 3,5 C 0,0 C 80 % 85 % 1007,9 hPa 0,0 l/m 0,0 km/h (0 Bft) O-NO 67 0 min 1,3 C 3,5 C 0,0 km/h (0 Bft)
28.03.2018 08:10 4,4 C 4,6 C 4,0 C 4,1 C 3,6 C 0,0 C 80 % 85 % 1007,9 hPa 0,0 l/m 0,0 km/h (0 Bft) O-NO 67 0 min 1,3 C 3,6 C 0,0 km/h (0 Bft)
28.03.2018 08:15 4,4 C 4,6 C 4,1 C 4,2 C 3,8 C 0,0 C 81 % 86 % 1007,9 hPa 0,0 l/m 0,0 km/h (0 Bft) SO 135 0 min 1,4 C 3,8 C 0,0 km/h (0 Bft)
28.03.2018 08:20 4,5 C 4,6 C 4,1 C 4,3 C 3,8 C 0,0 C 81 % 86 % 1007,9 hPa 0,0 l/m 0,0 km/h (0 Bft) SO 135 0 min 1,5 C 3,8 C 0,0 km/h (0 Bft)
28.03.2018 08:25 4,5 C 4,8 C 4,1 C 4,3 C 4,0 C 0,0 C 81 % 86 % 1007,9 hPa 0,0 l/m 0,0 km/h (0 Bft) SO 135 0 min 1,5 C 4,0 C 0,0 km/h (0 Bft)
28.03.2018 08:30 4,5 C 4,6 C 4,2 C 4,4 C 4,1 C 0,0 C 81 % 87 % 1007,9 hPa 0,0 l/m 0,0 km/h (0 Bft) SO 135 0 min 1,5 C 4,1 C 0,0 km/h (0 Bft)
28.03.2018 08:35 4,7 C 4,8 C 4,3 C 4,6 C 4,4 C 0,0 C 82 % 87 % 1008,0 hPa 0,0 l/m 0,0 km/h (0 Bft) O-SO 112 0 min 1,9 C 4,4 C 0,0 km/h (0 Bft)
28.03.2018 08:40 4,7 C 4,6 C 4,4 C 4,7 C 4,6 C 0,0 C 82 % 87 % 1008,0 hPa 0,0 l/m 0,0 km/h (0 Bft) S-SO 157 0 min 1,9 C 4,6 C 0,0 km/h (0 Bft)
28.03.2018 08:45 4,8 C 4,5 C 4,6 C 4,7 C 4,6 C 0,0 C 82 % 87 % 1008,0 hPa 0,0 l/m 0,5 km/h (0 Bft) S 180 0 min 2,0 C 4,6 C 0,0 km/h (0 Bft)
28.03.2018 08:50 4,8 C 4,6 C 4,7 C 4,7 C 4,6 C 0,0 C 82 % 87 % 1008,0 hPa 0,0 l/m 0,6 km/h (0 Bft) O-NO 67 0 min 2,0 C 4,6 C 0,0 km/h (0 Bft)
28.03.2018 08:55 5,1 C 4,6 C 4,8 C 5,0 C 4,7 C 0,0 C 83 % 87 % 1007,8 hPa 0,0 l/m 1,1 km/h (1 Bft) S-SO 157 0 min 2,5 C 4,7 C 2,4 km/h (1 Bft)
28.03.2018 09:00 5,1 C 4,8 C 4,9 C 5,0 C 4,8 C 0,0 C 83 % 87 % 1007,8 hPa 0,0 l/m 1,8 km/h (1 Bft) SO 135 0 min 2,5 C 4,8 C 4,7 km/h (1 Bft)
28.03.2018 09:05 5,2 C 4,8 C 5,1 C 5,1 C 4,8 C 0,0 C 83 % 88 % 1007,8 hPa 0,0 l/m 2,9 km/h (1 Bft) SW 225 0 min 2,6 C 4,8 C 7,6 km/h (2 Bft)
28.03.2018 09:10 5,3 C 4,8 C 5,1 C 5,2 C 4,9 C 0,0 C 84 % 88 % 1007,8 hPa 0,0 l/m 3,2 km/h (1 Bft) S 180 0 min 2,8 C 4,9 C 3,1 km/h (1 Bft)
28.03.2018 09:15 5,2 C 4,7 C 5,1 C 5,0 C 4,7 C 0,0 C 84 % 88 % 1007,6 hPa 0,0 l/m 3,5 km/h (1 Bft) S-SO 157 0 min 2,7 C 4,7 C 8,5 km/h (2 Bft)
28.03.2018 09:20 5,2 C 4,7 C 5,1 C 5,0 C 4,5 C 0,0 C 84 % 88 % 1007,6 hPa 0,0 l/m 4,0 km/h (1 Bft) S 180 0 min 2,7 C 4,5 C 6,3 km/h (2 Bft)
28.03.2018 09:25 5,2 C 5,0 C 5,2 C 5,2 C 5,1 C 0,0 C 84 % 88 % 1007,6 hPa 0,0 l/m 3,1 km/h (1 Bft) S 180 0 min 2,7 C 5,1 C 9,3 km/h (2 Bft)
28.03.2018 09:30 5,3 C 5,0 C 5,2 C 5,3 C 5,3 C 0,0 C 84 % 88 % 1007,6 hPa 0,0 l/m 1,0 km/h (0 Bft) W-SW 247 0 min 2,8 C 5,3 C 2,9 km/h (1 Bft)
28.03.2018 09:35 5,4 C 5,0 C 5,5 C 5,4 C 5,4 C 0,0 C 84 % 88 % 1007,8 hPa 0,0 l/m 1,1 km/h (1 Bft) NO 45 0 min 2,9 C 5,4 C 2,1 km/h (1 Bft)
28.03.2018 09:40 5,5 C 5,0 C 5,5 C 5,5 C 5,4 C 0,0 C 84 % 88 % 1007,8 hPa 0,0 l/m 1,4 km/h (1 Bft) S 180 0 min 3,0 C 5,4 C 0,0 km/h (0 Bft)
28.03.2018 09:45 5,4 C 4,8 C 5,5 C 5,6 C 5,6 C 0,2 C 84 % 88 % 1007,8 hPa 0,0 l/m 0,8 km/h (0 Bft) O-NO 67 0 min 2,9 C 5,6 C 2,4 km/h (1 Bft)
28.03.2018 09:50 5,5 C 4,8 C 5,7 C 5,7 C 5,7 C 0,2 C 84 % 88 % 1007,8 hPa 0,0 l/m 1,0 km/h (0 Bft) O-NO 67 0 min 3,0 C 5,7 C 0,0 km/h (0 Bft)
28.03.2018 09:55 5,5 C 4,8 C 5,6 C 5,8 C 5,8 C 0,3 C 84 % 88 % 1007,4 hPa 0,0 l/m 1,4 km/h (1 Bft) O 90 0 min 3,0 C 5,8 C 2,3 km/h (1 Bft)
28.03.2018 10:00 5,6 C 4,8 C 5,8 C 5,8 C 5,8 C 0,2 C 84 % 88 % 1007,4 hPa 0,0 l/m 1,6 km/h (1 Bft) O 90 0 min 3,1 C 5,8 C 2,6 km/h (1 Bft)
28.03.2018 10:05 5,6 C 4,8 C 5,9 C 5,8 C 5,8 C 0,2 C 84 % 88 % 1007,4 hPa 0,0 l/m 2,4 km/h (1 Bft) S-SO 157 0 min 3,1 C 5,8 C 4,2 km/h (1 Bft)
28.03.2018 10:10 5,6 C 4,8 C 6,1 C 6,0 C 6,0 C 0,4 C 85 % 88 % 1007,4 hPa 0,0 l/m 2,3 km/h (1 Bft) O-NO 67 0 min 3,3 C 6,0 C 0,0 km/h (0 Bft)
28.03.2018 10:15 5,9 C 4,7 C 6,6 C 6,8 C 6,8 C 0,9 C 85 % 88 % 1007,2 hPa 0,0 l/m 2,4 km/h (1 Bft) W-SW 247 0 min 3,6 C 6,8 C 3,1 km/h (1 Bft)
28.03.2018 10:20 6,0 C 4,7 C 6,6 C 7,0 C 7,0 C 1,0 C 84 % 88 % 1007,2 hPa 0,0 l/m 3,7 km/h (1 Bft) S-SO 157 0 min 3,5 C 7,0 C 3,5 km/h (1 Bft)
28.03.2018 10:25 6,0 C 4,7 C 6,7 C 7,3 C 7,3 C 1,3 C 84 % 88 % 1007,2 hPa 0,0 l/m 3,2 km/h (1 Bft) S 180 0 min 3,5 C 7,3 C 11,4 km/h (2 Bft)
28.03.2018 10:30 6,2 C 4,7 C 6,7 C 7,2 C 7,2 C 1,0 C 85 % 88 % 1007,2 hPa 0,0 l/m 3,7 km/h (1 Bft) S-SW 202 0 min 3,9 C 7,2 C 7,2 km/h (2 Bft)
28.03.2018 10:35 6,3 C 4,7 C 6,7 C 7,1 C 7,1 C 0,8 C 84 % 88 % 1007,5 hPa 0,0 l/m 3,9 km/h (1 Bft) O-SO 112 0 min 3,8 C 7,1 C 4,0 km/h (1 Bft)
28.03.2018 10:40 6,2 C 4,6 C 6,5 C 6,8 C 6,8 C 0,6 C 84 % 87 % 1007,5 hPa 0,0 l/m 4,0 km/h (1 Bft) S 180 0 min 3,7 C 6,8 C 3,9 km/h (1 Bft)
28.03.2018 10:45 6,3 C 4,7 C 6,5 C 6,3 C 6,2 C 0,0 C 84 % 87 % 1007,5 hPa 0,0 l/m 4,3 km/h (1 Bft) S 180 0 min 3,8 C 6,2 C 11,7 km/h (2 Bft)
28.03.2018 10:50 6,4 C 4,7 C 6,7 C 6,3 C 6,0 C 0,0 C 84 % 87 % 1007,5 hPa 0,0 l/m 4,7 km/h (1 Bft) W 270 0 min 3,9 C 5,3 C 8,0 km/h (2 Bft)
28.03.2018 10:55 6,4 C 4,7 C 6,9 C 6,3 C 6,0 C 0,0 C 84 % 87 % 1006,9 hPa 0,0 l/m 5,3 km/h (1 Bft) S 180 0 min 3,9 C 5,1 C 12,1 km/h (2 Bft)
28.03.2018 11:00 6,5 C 4,7 C 6,9 C 6,5 C 6,4 C 0,0 C 84 % 87 % 1006,9 hPa 0,0 l/m 4,5 km/h (1 Bft) S 180 0 min 4,0 C 6,4 C 6,1 km/h (2 Bft)
28.03.2018 11:05 6,7 C 4,7 C 6,8 C 6,9 C 6,9 C 0,2 C 84 % 87 % 1006,9 hPa 0,0 l/m 3,1 km/h (1 Bft) W-SW 247 0 min 4,2 C 6,9 C 6,3 km/h (2 Bft)
28.03.2018 11:10 6,6 C 4,7 C 6,8 C 6,8 C 6,8 C 0,2 C 84 % 87 % 1006,9 hPa 0,0 l/m 3,9 km/h (1 Bft) SO 135 0 min 4,1 C 6,8 C 5,5 km/h (1 Bft)
28.03.2018 11:15 6,7 C 4,7 C 7,1 C 6,9 C 6,9 C 0,2 C 84 % 87 % 1007,2 hPa 0,0 l/m 4,0 km/h (1 Bft) S-SO 157 0 min 4,2 C 6,9 C 5,5 km/h (1 Bft)
28.03.2018 11:20 6,8 C 4,7 C 7,2 C 7,4 C 7,4 C 0,6 C 84 % 87 % 1007,2 hPa 0,0 l/m 3,4 km/h (1 Bft) SO 135 0 min 4,3 C 7,4 C 3,2 km/h (1 Bft)
28.03.2018 11:25 6,9 C 4,7 C 7,3 C 7,8 C 7,8 C 0,9 C 84 % 86 % 1007,2 hPa 0,0 l/m 2,7 km/h (1 Bft) NO 45 0 min 4,4 C 7,8 C 4,0 km/h (1 Bft)
28.03.2018 11:30 7,0 C 4,7 C 7,4 C 7,8 C 7,8 C 0,8 C 83 % 86 % 1007,2 hPa 0,0 l/m 3,5 km/h (1 Bft) W 270 0 min 4,3 C 7,8 C 4,2 km/h (1 Bft)
28.03.2018 11:35 7,0 C 4,7 C 7,4 C 7,5 C 7,5 C 0,5 C 83 % 86 % 1006,9 hPa 0,0 l/m 4,2 km/h (1 Bft) SW 225 0 min 4,3 C 7,5 C 6,3 km/h (2 Bft)
28.03.2018 11:40 7,1 C 4,7 C 7,4 C 7,8 C 7,8 C 0,7 C 83 % 86 % 1006,9 hPa 0,0 l/m 3,5 km/h (1 Bft) SO 135 0 min 4,4 C 7,8 C 2,3 km/h (1 Bft)
28.03.2018 11:45 7,2 C 4,7 C 7,7 C 7,8 C 7,8 C 0,6 C 83 % 86 % 1006,9 hPa 0,0 l/m 4,5 km/h (1 Bft) W-SW 247 0 min 4,5 C 7,8 C 4,5 km/h (1 Bft)
28.03.2018 11:50 7,2 C 4,7 C 7,9 C 7,8 C 7,8 C 0,6 C 83 % 85 % 1006,9 hPa 0,0 l/m 4,8 km/h (1 Bft) SO 135 0 min 4,5 C 7,3 C 2,7 km/h (1 Bft)
28.03.2018 11:55 7,3 C 4,7 C 7,9 C 8,4 C 8,4 C 1,1 C 83 % 86 % 1006,6 hPa 0,0 l/m 3,1 km/h (1 Bft) W-SW 247 0 min 4,6 C 8,4 C 4,2 km/h (1 Bft)
28.03.2018 12:00 7,4 C 4,7 C 7,9 C 8,6 C 8,6 C 1,2 C 83 % 85 % 1006,6 hPa 0,0 l/m 2,1 km/h (1 Bft) S-SO 157 0 min 4,7 C 8,6 C 1,6 km/h (1 Bft)
28.03.2018 12:05 7,5 C 4,7 C 8,0 C 8,7 C 8,7 C 1,2 C 83 % 85 % 1006,6 hPa 0,0 l/m 2,6 km/h (1 Bft) W 270 0 min 4,8 C 8,7 C 2,6 km/h (1 Bft)
28.03.2018 12:10 7,7 C 4,7 C 8,0 C 8,8 C 8,8 C 1,1 C 83 % 85 % 1006,6 hPa 0,0 l/m 2,6 km/h (1 Bft) W 270 0 min 5,0 C 8,8 C 3,5 km/h (1 Bft)
28.03.2018 12:15 7,7 C 4,7 C 8,0 C 8,7 C 8,7 C 1,0 C 83 % 85 % 1006,8 hPa 0,0 l/m 3,1 km/h (1 Bft) S-SW 202 0 min 5,0 C 8,7 C 6,3 km/h (2 Bft)
28.03.2018 12:20 7,7 C 4,7 C 8,0 C 8,6 C 8,6 C 0,9 C 82 % 85 % 1006,8 hPa 0,0 l/m 3,9 km/h (1 Bft) S 180 0 min 4,8 C 8,6 C 5,6 km/h (1 Bft)
28.03.2018 12:25 7,6 C 4,7 C 7,9 C 8,3 C 8,3 C 0,7 C 82 % 85 % 1006,8 hPa 0,0 l/m 3,9 km/h (1 Bft) W-SW 247 0 min 4,7 C 8,3 C 3,4 km/h (1 Bft)
28.03.2018 12:30 7,7 C 4,7 C 8,0 C 8,4 C 8,4 C 0,7 C 82 % 85 % 1006,8 hPa 0,0 l/m 3,9 km/h (1 Bft) O-SO 112 0 min 4,8 C 8,4 C 4,2 km/h (1 Bft)
28.03.2018 12:35 7,7 C 4,7 C 8,0 C 8,5 C 8,5 C 0,8 C 82 % 84 % 1006,4 hPa 0,0 l/m 3,5 km/h (1 Bft) N-NW 337 0 min 4,8 C 8,5 C 4,7 km/h (1 Bft)
28.03.2018 12:40 7,7 C 4,7 C 8,1 C 8,4 C 8,4 C 0,7 C 82 % 84 % 1006,4 hPa 0,0 l/m 4,2 km/h (1 Bft) S-SO 157 0 min 4,8 C 8,4 C 6,3 km/h (2 Bft)
28.03.2018 12:45 7,9 C 4,7 C 8,1 C 8,7 C 8,7 C 0,8 C 82 % 85 % 1006,4 hPa 0,0 l/m 3,9 km/h (1 Bft) SW 225 0 min 5,0 C 8,7 C 5,8 km/h (2 Bft)
28.03.2018 12:50 7,9 C 4,7 C 8,1 C 8,8 C 8,8 C 0,9 C 82 % 84 % 1006,4 hPa 0,0 l/m 3,4 km/h (1 Bft) SO 135 0 min 5,0 C 8,8 C 4,2 km/h (1 Bft)
28.03.2018 12:55 7,9 C 4,8 C 8,1 C 8,8 C 8,8 C 0,9 C 82 % 84 % 1006,1 hPa 0,0 l/m 3,4 km/h (1 Bft) S 180 0 min 5,0 C 8,8 C 3,5 km/h (1 Bft)
28.03.2018 13:00 7,9 C 4,8 C 8,3 C 8,9 C 8,9 C 1,0 C 82 % 85 % 1006,1 hPa 0,0 l/m 3,1 km/h (1 Bft) S 180 0 min 5,0 C 8,9 C 7,6 km/h (2 Bft)
28.03.2018 13:05 7,9 C 4,8 C 8,3 C 8,8 C 8,8 C 0,9 C 82 % 85 % 1006,1 hPa 0,0 l/m 4,5 km/h (1 Bft) W-SW 247 0 min 5,0 C 8,8 C 9,2 km/h (2 Bft)
28.03.2018 13:10 7,9 C 4,8 C 8,3 C 8,8 C 8,8 C 0,9 C 82 % 85 % 1006,1 hPa 0,0 l/m 4,7 km/h (1 Bft) SW 225 0 min 5,0 C 8,5 C 9,7 km/h (2 Bft)
28.03.2018 13:15 7,9 C 4,8 C 8,3 C 8,5 C 8,5 C 0,6 C 82 % 85 % 1006,2 hPa 0,0 l/m 5,0 km/h (1 Bft) SW 225 0 min 5,0 C 8,1 C 5,0 km/h (1 Bft)
28.03.2018 13:20 7,9 C 4,8 C 8,2 C 8,3 C 8,3 C 0,4 C 83 % 85 % 1006,2 hPa 0,0 l/m 5,6 km/h (1 Bft) S-SW 202 0 min 5,2 C 7,6 C 7,6 km/h (2 Bft)
28.03.2018 13:25 8,0 C 4,9 C 8,2 C 8,4 C 8,4 C 0,4 C 83 % 85 % 1006,2 hPa 0,0 l/m 4,7 km/h (1 Bft) SW 225 0 min 5,3 C 8,0 C 4,7 km/h (1 Bft)
28.03.2018 13:30 8,0 C 5,0 C 8,3 C 8,5 C 8,5 C 0,5 C 83 % 86 % 1006,2 hPa 0,0 l/m 3,7 km/h (1 Bft) NW 315 0 min 5,3 C 8,5 C 4,0 km/h (1 Bft)
28.03.2018 13:35 7,9 C 5,1 C 8,3 C 8,2 C 8,2 C 0,3 C 83 % 87 % 1006,6 hPa 0,0 l/m 2,9 km/h (1 Bft) SO 135 0 min 5,2 C 8,2 C 3,1 km/h (1 Bft)
28.03.2018 13:40 7,9 C 5,2 C 8,1 C 8,2 C 8,2 C 0,3 C 84 % 88 % 1006,6 hPa 0,0 l/m 2,6 km/h (1 Bft) S 180 0 min 5,4 C 8,2 C 4,7 km/h (1 Bft)
28.03.2018 13:45 7,7 C 5,2 C 8,1 C 8,2 C 8,2 C 0,5 C 84 % 88 % 1006,6 hPa 0,0 l/m 2,4 km/h (1 Bft) S-SW 202 0 min 5,2 C 8,2 C 3,7 km/h (1 Bft)
28.03.2018 13:50 7,6 C 5,4 C 8,1 C 8,2 C 8,2 C 0,6 C 84 % 88 % 1006,6 hPa 0,0 l/m 2,3 km/h (1 Bft) O-NO 67 0 min 5,1 C 8,2 C 2,1 km/h (1 Bft)
28.03.2018 13:55 7,6 C 5,4 C 8,0 C 8,1 C 8,1 C 0,5 C 85 % 88 % 1006,1 hPa 0,0 l/m 1,8 km/h (1 Bft) SW 225 0 min 5,2 C 8,1 C 0,0 km/h (0 Bft)
28.03.2018 14:00 7,5 C 5,5 C 8,1 C 8,1 C 8,1 C 0,6 C 85 % 88 % 1006,1 hPa 0,0 l/m 1,8 km/h (1 Bft) SW 225 0 min 5,1 C 8,1 C 3,1 km/h (1 Bft)
28.03.2018 14:05 7,5 C 5,4 C 8,2 C 8,3 C 8,3 C 0,8 C 85 % 88 % 1006,1 hPa 0,0 l/m 1,9 km/h (1 Bft) S 180 0 min 5,1 C 8,3 C 0,0 km/h (0 Bft)
28.03.2018 14:10 7,5 C 5,4 C 8,3 C 8,3 C 8,3 C 0,8 C 86 % 88 % 1006,1 hPa 0,0 l/m 1,9 km/h (1 Bft) SO 135 0 min 5,3 C 8,3 C 1,8 km/h (1 Bft)
28.03.2018 14:15 7,5 C 5,5 C 8,3 C 8,5 C 8,5 C 1,0 C 86 % 88 % 1005,9 hPa 0,0 l/m 0,8 km/h (0 Bft) SW 225 0 min 5,3 C 8,5 C 3,9 km/h (1 Bft)
28.03.2018 14:20 7,5 C 5,5 C 8,4 C 8,6 C 8,6 C 1,1 C 86 % 88 % 1005,9 hPa 0,0 l/m 0,8 km/h (0 Bft) S-SO 157 0 min 5,3 C 8,6 C 1,9 km/h (1 Bft)
28.03.2018 14:25 7,4 C 5,5 C 8,3 C 8,6 C 8,6 C 1,2 C 86 % 88 % 1005,9 hPa 0,0 l/m 1,0 km/h (0 Bft) N-NO 22 0 min 5,2 C 8,6 C 0,0 km/h (0 Bft)
28.03.2018 14:30 7,5 C 5,5 C 8,3 C 8,5 C 8,5 C 1,0 C 86 % 88 % 1005,9 hPa 0,0 l/m 0,5 km/h (0 Bft) S-SO 157 0 min 5,3 C 8,5 C 0,0 km/h (0 Bft)
28.03.2018 14:35 7,4 C 5,5 C 8,1 C 8,5 C 8,5 C 1,1 C 86 % 88 % 1005,9 hPa 0,0 l/m 0,3 km/h (0 Bft) S-SW 202 0 min 5,2 C 8,5 C 0,0 km/h (0 Bft)
28.03.2018 14:40 7,4 C 5,5 C 8,1 C 8,4 C 8,4 C 1,0 C 86 % 88 % 1005,9 hPa 0,0 l/m 0,2 km/h (0 Bft) W-SW 247 0 min 5,2 C 8,4 C 0,0 km/h (0 Bft)
28.03.2018 14:45 7,4 C 5,5 C 8,1 C 8,3 C 8,3 C 0,9 C 86 % 88 % 1005,9 hPa 0,0 l/m 0,2 km/h (0 Bft) SO 135 0 min 5,2 C 8,3 C 0,0 km/h (0 Bft)
28.03.2018 14:50 7,3 C 5,5 C 8,1 C 8,3 C 8,3 C 1,0 C 86 % 88 % 1005,9 hPa 0,0 l/m 0,2 km/h (0 Bft) SO 135 0 min 5,1 C 8,3 C 0,0 km/h (0 Bft)
28.03.2018 14:55 7,4 C 5,5 C 8,0 C 8,3 C 8,3 C 0,9 C 86 % 88 % 1005,6 hPa 0,0 l/m 0,0 km/h (0 Bft) S 180 0 min 5,2 C 8,3 C 0,0 km/h (0 Bft)
28.03.2018 15:00 7,4 C 5,5 C 8,0 C 8,3 C 8,3 C 0,9 C 86 % 88 % 1005,6 hPa 0,0 l/m 0,0 km/h (0 Bft) O-SO 112 0 min 5,2 C 8,3 C 0,0 km/h (0 Bft)
28.03.2018 15:05 7,4 C 5,5 C 7,9 C 8,2 C 8,2 C 0,8 C 86 % 88 % 1005,6 hPa 0,0 l/m 0,0 km/h (0 Bft) O-SO 112 0 min 5,2 C 8,2 C 0,0 km/h (0 Bft)
28.03.2018 15:10 7,4 C 5,6 C 7,9 C 8,2 C 8,2 C 0,8 C 86 % 88 % 1005,6 hPa 0,0 l/m 0,0 km/h (0 Bft) O-SO 112 0 min 5,2 C 8,2 C 0,0 km/h (0 Bft)
28.03.2018 15:15 7,3 C 5,6 C 8,0 C 8,3 C 8,3 C 1,0 C 86 % 88 % 1005,4 hPa 0,0 l/m 0,0 km/h (0 Bft) O-SO 112 0 min 5,1 C 8,3 C 0,0 km/h (0 Bft)
28.03.2018 15:20 7,4 C 5,6 C 8,3 C 8,5 C 8,5 C 1,1 C 86 % 88 % 1005,4 hPa 0,0 l/m 0,2 km/h (0 Bft) S 180 0 min 5,2 C 8,5 C 0,0 km/h (0 Bft)
28.03.2018 15:25 7,4 C 5,5 C 8,5 C 8,8 C 8,8 C 1,4 C 86 % 88 % 1005,4 hPa 0,0 l/m 0,3 km/h (0 Bft) S-SW 202 0 min 5,2 C 8,8 C 2,1 km/h (1 Bft)
28.03.2018 15:30 7,5 C 5,5 C 8,7 C 9,0 C 9,0 C 1,5 C 86 % 88 % 1005,4 hPa 0,7 l/m 0,3 km/h (0 Bft) S-SW 202 0 min 5,3 C 9,0 C 0,0 km/h (0 Bft)
28.03.2018 15:35 7,5 C 5,5 C 8,6 C 9,1 C 9,1 C 1,6 C 86 % 88 % 1005,5 hPa 0,0 l/m 0,8 km/h (0 Bft) S-SW 202 0 min 5,3 C 9,1 C 1,8 km/h (1 Bft)
28.03.2018 15:40 7,5 C 5,6 C 8,6 C 9,1 C 9,1 C 1,6 C 86 % 88 % 1005,5 hPa 0,0 l/m 0,8 km/h (0 Bft) W-SW 247 0 min 5,3 C 9,1 C 2,7 km/h (1 Bft)
28.03.2018 15:45 7,6 C 5,5 C 8,8 C 9,3 C 9,3 C 1,7 C 86 % 88 % 1005,5 hPa 0,0 l/m 0,6 km/h (0 Bft) W-SW 247 0 min 5,4 C 9,3 C 3,2 km/h (1 Bft)
28.03.2018 15:50 7,6 C 5,5 C 8,8 C 9,3 C 9,3 C 1,7 C 86 % 88 % 1005,5 hPa 0,0 l/m 1,3 km/h (1 Bft) W-SW 247 0 min 5,4 C 9,3 C 1,6 km/h (1 Bft)
28.03.2018 15:55 7,7 C 5,5 C 8,8 C 9,5 C 9,5 C 1,8 C 86 % 88 % 1005,1 hPa 0,0 l/m 1,4 km/h (1 Bft) W-SW 247 0 min 5,5 C 9,5 C 0,0 km/h (0 Bft)
28.03.2018 16:00 7,8 C 5,5 C 8,8 C 9,5 C 9,5 C 1,7 C 86 % 88 % 1005,1 hPa 0,0 l/m 1,3 km/h (1 Bft) NW 315 0 min 5,6 C 9,5 C 2,7 km/h (1 Bft)
28.03.2018 16:05 7,9 C 5,6 C 8,8 C 9,5 C 9,5 C 1,6 C 86 % 88 % 1005,1 hPa 0,0 l/m 0,8 km/h (0 Bft) NW 315 0 min 5,7 C 9,5 C 0,0 km/h (0 Bft)
28.03.2018 16:10 7,8 C 5,6 C 8,8 C 9,5 C 9,5 C 1,7 C 86 % 88 % 1005,1 hPa 0,0 l/m 0,8 km/h (0 Bft) NW 315 0 min 5,6 C 9,5 C 2,4 km/h (1 Bft)
28.03.2018 16:15 7,8 C 5,6 C 8,8 C 9,5 C 9,5 C 1,7 C 86 % 88 % 1005,0 hPa 0,0 l/m 1,0 km/h (0 Bft) NW 315 0 min 5,6 C 9,5 C 0,0 km/h (0 Bft)
28.03.2018 16:20 7,9 C 5,5 C 8,8 C 9,5 C 9,5 C 1,6 C 86 % 88 % 1005,0 hPa 0,0 l/m 1,0 km/h (0 Bft) NW 315 0 min 5,7 C 9,5 C 0,0 km/h (0 Bft)
28.03.2018 16:25 7,9 C 5,6 C 8,8 C 9,3 C 9,3 C 1,4 C 86 % 88 % 1005,0 hPa 0,0 l/m 0,3 km/h (0 Bft) N-NW 337 0 min 5,7 C 9,3 C 0,0 km/h (0 Bft)
28.03.2018 16:30 7,9 C 5,5 C 8,7 C 9,1 C 9,1 C 1,2 C 86 % 88 % 1005,0 hPa 0,0 l/m 0,2 km/h (0 Bft) NW 315 0 min 5,7 C 9,1 C 0,0 km/h (0 Bft)
28.03.2018 16:35 7,8 C 5,6 C 8,7 C 8,8 C 8,8 C 1,0 C 86 % 88 % 1005,0 hPa 0,0 l/m 0,0 km/h (0 Bft) N-NO 22 0 min 5,6 C 8,8 C 0,0 km/h (0 Bft)
28.03.2018 16:40 7,8 C 5,7 C 8,7 C 8,7 C 8,7 C 0,9 C 86 % 88 % 1005,0 hPa 0,0 l/m 0,0 km/h (0 Bft) N-NO 22 0 min 5,6 C 8,7 C 0,0 km/h (0 Bft)
28.03.2018 16:45 7,8 C 5,7 C 8,5 C 8,5 C 8,5 C 0,7 C 86 % 88 % 1005,0 hPa 0,0 l/m 0,0 km/h (0 Bft) N-NO 22 0 min 5,6 C 8,5 C 0,0 km/h (0 Bft)
28.03.2018 16:50 7,9 C 5,7 C 8,4 C 8,5 C 8,5 C 0,6 C 86 % 88 % 1005,0 hPa 0,0 l/m 0,0 km/h (0 Bft) N-NO 22 0 min 5,7 C 8,5 C 0,0 km/h (0 Bft)
28.03.2018 16:55 7,7 C 5,7 C 8,4 C 8,3 C 8,3 C 0,6 C 86 % 88 % 1005,0 hPa 0,0 l/m 0,0 km/h (0 Bft) N-NO 22 0 min 5,5 C 8,3 C 0,0 km/h (0 Bft)
28.03.2018 17:00 7,7 C 5,7 C 8,4 C 8,3 C 8,3 C 0,6 C 86 % 88 % 1005,0 hPa 0,0 l/m 0,2 km/h (0 Bft) N-NO 22 0 min 5,5 C 8,3 C 1,9 km/h (1 Bft)
28.03.2018 17:05 7,6 C 5,7 C 8,3 C 8,2 C 8,2 C 0,6 C 86 % 88 % 1005,0 hPa 0,0 l/m 0,5 km/h (0 Bft) N-NO 22 0 min 5,4 C 8,2 C 0,0 km/h (0 Bft)
28.03.2018 17:10 7,6 C 5,7 C 8,3 C 8,2 C 8,2 C 0,6 C 86 % 88 % 1005,0 hPa 0,0 l/m 0,5 km/h (0 Bft) N-NO 22 0 min 5,4 C 8,2 C 0,0 km/h (0 Bft)
28.03.2018 17:15 7,6 C 5,7 C 8,2 C 8,2 C 8,2 C 0,6 C 86 % 88 % 1004,1 hPa 0,0 l/m 0,0 km/h (0 Bft) N-NO 22 0 min 5,4 C 8,2 C 0,0 km/h (0 Bft)
28.03.2018 17:20 7,6 C 5,7 C 8,3 C 8,2 C 8,2 C 0,6 C 86 % 88 % 1004,1 hPa 0,0 l/m 0,2 km/h (0 Bft) N-NO 22 0 min 5,4 C 8,2 C 1,9 km/h (1 Bft)
28.03.2018 17:25 7,5 C 5,7 C 8,2 C 8,1 C 8,1 C 0,6 C 86 % 87 % 1004,1 hPa 0,0 l/m 1,1 km/h (1 Bft) O-NO 67 0 min 5,3 C 8,1 C 1,9 km/h (1 Bft)
28.03.2018 17:30 7,4 C 5,7 C 8,1 C 8,1 C 8,1 C 0,7 C 86 % 87 % 1004,1 hPa 0,0 l/m 1,4 km/h (1 Bft) O-NO 67 0 min 5,2 C 8,1 C 0,0 km/h (0 Bft)
28.03.2018 17:35 7,3 C 5,7 C 8,0 C 8,0 C 8,0 C 0,7 C 86 % 87 % 1004,4 hPa 0,0 l/m 0,8 km/h (0 Bft) O-NO 67 0 min 5,1 C 8,0 C 0,0 km/h (0 Bft)
28.03.2018 17:40 7,3 C 5,7 C 8,1 C 7,9 C 7,9 C 0,6 C 86 % 87 % 1004,4 hPa 0,0 l/m 0,2 km/h (0 Bft) O-NO 67 0 min 5,1 C 7,9 C 0,0 km/h (0 Bft)
28.03.2018 17:45 7,2 C 5,7 C 8,0 C 7,9 C 7,9 C 0,7 C 86 % 87 % 1004,4 hPa 0,0 l/m 0,3 km/h (0 Bft) NO 45 0 min 5,0 C 7,9 C 2,6 km/h (1 Bft)
28.03.2018 17:50 7,3 C 5,7 C 8,0 C 8,0 C 8,0 C 0,7 C 86 % 86 % 1004,4 hPa 0,7 l/m 0,6 km/h (0 Bft) NO 45 0 min 5,1 C 8,0 C 1,6 km/h (1 Bft)
28.03.2018 17:55 7,2 C 5,7 C 8,1 C 8,0 C 8,0 C 0,8 C 87 % 86 % 1003,9 hPa 0,0 l/m 1,0 km/h (0 Bft) O-NO 67 0 min 5,2 C 8,0 C 1,8 km/h (1 Bft)
28.03.2018 18:00 7,1 C 5,7 C 8,0 C 8,0 C 8,0 C 0,9 C 87 % 86 % 1003,9 hPa 0,0 l/m 0,5 km/h (0 Bft) NO 45 0 min 5,1 C 8,0 C 0,0 km/h (0 Bft)
28.03.2018 18:05 7,1 C 5,7 C 7,9 C 7,9 C 7,9 C 0,8 C 87 % 86 % 1003,9 hPa 0,0 l/m 0,3 km/h (0 Bft) O-NO 67 0 min 5,1 C 7,9 C 0,0 km/h (0 Bft)
28.03.2018 18:10 7,0 C 5,7 C 7,9 C 7,8 C 7,8 C 0,8 C 87 % 86 % 1003,9 hPa 0,0 l/m 0,2 km/h (0 Bft) O-NO 67 0 min 5,0 C 7,8 C 0,0 km/h (0 Bft)
28.03.2018 18:15 7,1 C 5,7 C 7,9 C 7,8 C 7,8 C 0,7 C 87 % 85 % 1003,6 hPa 0,0 l/m 0,8 km/h (0 Bft) NO 45 0 min 5,1 C 7,8 C 2,4 km/h (1 Bft)
28.03.2018 18:20 6,9 C 5,7 C 7,9 C 7,8 C 7,8 C 0,9 C 87 % 85 % 1003,6 hPa 0,0 l/m 1,3 km/h (1 Bft) NO 45 0 min 4,9 C 7,8 C 0,0 km/h (0 Bft)
28.03.2018 18:25 6,9 C 5,7 C 7,9 C 7,8 C 7,8 C 0,9 C 87 % 85 % 1003,6 hPa 0,0 l/m 0,8 km/h (0 Bft) N-NO 22 0 min 4,9 C 7,8 C 0,0 km/h (0 Bft)
28.03.2018 18:30 6,9 C 5,7 C 7,8 C 7,8 C 7,8 C 0,9 C 87 % 85 % 1003,6 hPa 0,0 l/m 0,0 km/h (0 Bft) N-NO 22 0 min 4,9 C 7,8 C 0,0 km/h (0 Bft)
28.03.2018 18:35 6,9 C 5,7 C 7,7 C 7,8 C 7,8 C 0,9 C 87 % 85 % 1003,6 hPa 0,0 l/m 0,0 km/h (0 Bft) O-NO 67 0 min 4,9 C 7,8 C 0,0 km/h (0 Bft)
28.03.2018 18:40 6,9 C 5,7 C 7,7 C 7,7 C 7,7 C 0,8 C 87 % 85 % 1003,6 hPa 0,7 l/m 0,0 km/h (0 Bft) N-NO 22 0 min 4,9 C 7,7 C 0,0 km/h (0 Bft)
28.03.2018 18:45 6,8 C 5,7 C 7,7 C 7,7 C 7,7 C 0,9 C 87 % 85 % 1003,6 hPa 0,0 l/m 0,0 km/h (0 Bft) N-NO 22 0 min 4,8 C 7,7 C 0,0 km/h (0 Bft)
28.03.2018 18:50 6,8 C 5,7 C 7,7 C 7,7 C 7,7 C 0,9 C 87 % 85 % 1003,6 hPa 0,0 l/m 0,0 km/h (0 Bft) NO 45 0 min 4,8 C 7,7 C 0,0 km/h (0 Bft)
28.03.2018 18:55 6,9 C 5,7 C 7,6 C 7,6 C 7,6 C 0,7 C 87 % 84 % 1003,6 hPa 0,0 l/m 0,0 km/h (0 Bft) O-NO 67 0 min 4,9 C 7,6 C 0,0 km/h (0 Bft)
28.03.2018 19:00 6,8 C 5,7 C 7,6 C 7,6 C 7,6 C 0,8 C 87 % 84 % 1003,6 hPa 0,0 l/m 0,5 km/h (0 Bft) O-NO 67 5 min 4,8 C 7,6 C 1,6 km/h (1 Bft)
28.03.2018 19:05 6,7 C 5,7 C 7,7 C 7,5 C 7,5 C 0,8 C 87 % 84 % 1003,6 hPa 0,0 l/m 0,8 km/h (0 Bft) NO 45 5 min 4,7 C 7,5 C 2,4 km/h (1 Bft)
28.03.2018 19:10 6,7 C 5,7 C 7,6 C 7,5 C 7,5 C 0,8 C 87 % 83 % 1003,6 hPa 0,0 l/m 1,3 km/h (1 Bft) NO 45 5 min 4,7 C 7,5 C 2,1 km/h (1 Bft)
28.03.2018 19:15 6,7 C 5,7 C 7,5 C 7,5 C 7,5 C 0,8 C 87 % 83 % 1002,9 hPa 0,0 l/m 1,4 km/h (1 Bft) N-NO 22 5 min 4,7 C 7,5 C 0,0 km/h (0 Bft)
28.03.2018 19:20 6,6 C 5,7 C 7,5 C 7,4 C 7,4 C 0,8 C 87 % 83 % 1002,9 hPa 0,0 l/m 0,5 km/h (0 Bft) N-NO 22 5 min 4,6 C 7,4 C 0,0 km/h (0 Bft)
28.03.2018 19:25 6,5 C 5,8 C 7,5 C 7,4 C 7,4 C 0,9 C 87 % 83 % 1002,9 hPa 0,7 l/m 0,0 km/h (0 Bft) O-NO 67 0 min 4,5 C 7,4 C 0,0 km/h (0 Bft)
28.03.2018 19:30 6,5 C 5,8 C 7,5 C 7,4 C 7,4 C 0,9 C 87 % 83 % 1002,9 hPa 0,0 l/m 0,0 km/h (0 Bft) O-NO 67 0 min 4,5 C 7,4 C 0,0 km/h (0 Bft)
28.03.2018 19:35 6,5 C 5,8 C 7,5 C 7,3 C 7,3 C 0,8 C 87 % 83 % 1003,0 hPa 0,0 l/m 0,0 km/h (0 Bft) O-NO 67 0 min 4,5 C 7,3 C 0,0 km/h (0 Bft)
28.03.2018 19:40 6,4 C 5,8 C 7,3 C 7,3 C 7,3 C 0,9 C 87 % 83 % 1003,0 hPa 0,0 l/m 0,0 km/h (0 Bft) O-NO 67 0 min 4,4 C 7,3 C 0,0 km/h (0 Bft)
28.03.2018 19:45 6,5 C 5,8 C 7,2 C 7,3 C 7,3 C 0,8 C 87 % 83 % 1003,0 hPa 0,0 l/m 0,0 km/h (0 Bft) N-NO 22 0 min 4,5 C 7,3 C 0,0 km/h (0 Bft)
28.03.2018 19:50 6,4 C 5,8 C 7,2 C 7,3 C 7,3 C 0,9 C 87 % 83 % 1003,0 hPa 0,0 l/m 0,0 km/h (0 Bft) O-NO 67 0 min 4,4 C 7,3 C 0,0 km/h (0 Bft)
28.03.2018 19:55 6,4 C 5,8 C 7,2 C 7,2 C 7,2 C 0,8 C 87 % 82 % 1002,8 hPa 0,0 l/m 0,0 km/h (0 Bft) NO 45 0 min 4,4 C 7,2 C 0,0 km/h (0 Bft)
28.03.2018 20:00 6,3 C 5,8 C 7,1 C 7,1 C 7,1 C 0,8 C 87 % 83 % 1002,8 hPa 0,0 l/m 0,0 km/h (0 Bft) N-NO 22 0 min 4,3 C 7,1 C 0,0 km/h (0 Bft)
28.03.2018 20:05 6,2 C 5,8 C 7,1 C 7,1 C 7,1 C 0,9 C 87 % 82 % 1002,8 hPa 0,0 l/m 0,3 km/h (0 Bft) O-NO 67 0 min 4,2 C 7,1 C 2,1 km/h (1 Bft)
28.03.2018 20:10 6,3 C 5,8 C 7,0 C 7,1 C 7,1 C 0,8 C 87 % 82 % 1002,8 hPa 0,0 l/m 0,6 km/h (0 Bft) O-NO 67 0 min 4,3 C 7,1 C 1,9 km/h (1 Bft)
28.03.2018 20:15 6,1 C 5,8 C 7,1 C 7,0 C 7,0 C 0,9 C 87 % 82 % 1002,6 hPa 0,0 l/m 1,6 km/h (1 Bft) O-NO 67 0 min 4,1 C 7,0 C 4,3 km/h (1 Bft)
28.03.2018 20:20 6,1 C 5,8 C 7,1 C 7,0 C 7,0 C 0,9 C 87 % 81 % 1002,6 hPa 0,0 l/m 2,4 km/h (1 Bft) O-NO 67 0 min 4,1 C 7,0 C 3,4 km/h (1 Bft)
28.03.2018 20:25 6,0 C 5,8 C 7,0 C 7,0 C 7,0 C 1,0 C 87 % 81 % 1002,6 hPa 0,0 l/m 2,4 km/h (1 Bft) O-NO 67 0 min 4,0 C 7,0 C 3,7 km/h (1 Bft)
28.03.2018 20:30 6,1 C 5,8 C 7,0 C 6,9 C 6,9 C 0,8 C 87 % 81 % 1002,6 hPa 0,0 l/m 1,9 km/h (1 Bft) O-NO 67 0 min 4,1 C 6,9 C 2,1 km/h (1 Bft)
28.03.2018 20:35 6,0 C 5,8 C 6,9 C 6,9 C 6,9 C 0,9 C 87 % 81 % 1002,2 hPa 0,0 l/m 1,3 km/h (1 Bft) S-SO 157 0 min 4,0 C 6,9 C 0,0 km/h (0 Bft)
28.03.2018 20:40 5,9 C 5,8 C 6,9 C 6,8 C 6,8 C 0,9 C 87 % 81 % 1002,2 hPa 0,0 l/m 0,5 km/h (0 Bft) O 90 0 min 3,9 C 6,8 C 0,0 km/h (0 Bft)
28.03.2018 20:45 5,9 C 5,8 C 6,8 C 6,8 C 6,8 C 0,9 C 87 % 81 % 1002,2 hPa 0,0 l/m 0,0 km/h (0 Bft) O 90 0 min 3,9 C 6,8 C 0,0 km/h (0 Bft)
28.03.2018 20:50 5,9 C 5,8 C 6,8 C 6,7 C 6,7 C 0,8 C 87 % 81 % 1002,2 hPa 0,0 l/m 0,0 km/h (0 Bft) SO 135 0 min 3,9 C 6,7 C 0,0 km/h (0 Bft)
28.03.2018 20:55 5,9 C 5,8 C 6,7 C 6,6 C 6,6 C 0,7 C 87 % 81 % 1001,9 hPa 0,0 l/m 0,0 km/h (0 Bft) SO 135 0 min 3,9 C 6,6 C 0,0 km/h (0 Bft)
28.03.2018 21:00 5,8 C 5,8 C 6,7 C 6,5 C 6,5 C 0,7 C 87 % 81 % 1001,9 hPa 0,0 l/m 0,0 km/h (0 Bft) SO 135 0 min 3,8 C 6,5 C 0,0 km/h (0 Bft)
28.03.2018 21:05 5,7 C 5,8 C 6,6 C 6,5 C 6,5 C 0,8 C 87 % 81 % 1001,9 hPa 0,0 l/m 0,0 km/h (0 Bft) O-SO 112 0 min 3,7 C 6,5 C 0,0 km/h (0 Bft)
28.03.2018 21:10 5,6 C 5,8 C 6,5 C 6,6 C 6,6 C 1,0 C 87 % 81 % 1001,9 hPa 0,0 l/m 0,0 km/h (0 Bft) O-SO 112 0 min 3,6 C 6,6 C 0,0 km/h (0 Bft)
28.03.2018 21:15 5,7 C 5,8 C 6,4 C 6,5 C 6,5 C 0,8 C 87 % 81 % 1001,8 hPa 0,0 l/m 0,0 km/h (0 Bft) SO 135 0 min 3,7 C 6,5 C 0,0 km/h (0 Bft)
28.03.2018 21:20 5,6 C 5,8 C 6,5 C 6,5 C 6,5 C 0,9 C 87 % 80 % 1001,8 hPa 0,0 l/m 0,0 km/h (0 Bft) SO 135 0 min 3,6 C 6,5 C 0,0 km/h (0 Bft)
28.03.2018 21:25 5,6 C 5,8 C 6,5 C 6,5 C 6,5 C 0,9 C 87 % 80 % 1001,8 hPa 0,0 l/m 0,0 km/h (0 Bft) S-SO 157 0 min 3,6 C 6,5 C 0,0 km/h (0 Bft)
28.03.2018 21:30 5,6 C 5,8 C 6,7 C 6,5 C 6,5 C 0,9 C 87 % 80 % 1001,8 hPa 0,0 l/m 0,0 km/h (0 Bft) S-SO 157 0 min 3,6 C 6,5 C 0,0 km/h (0 Bft)
28.03.2018 21:35 5,6 C 5,8 C 6,7 C 6,5 C 6,5 C 0,9 C 87 % 79 % 1001,6 hPa 0,0 l/m 0,0 km/h (0 Bft) SO 135 0 min 3,6 C 6,5 C 0,0 km/h (0 Bft)
28.03.2018 21:40 5,6 C 5,8 C 6,7 C 6,5 C 6,5 C 0,9 C 87 % 79 % 1001,6 hPa 0,0 l/m 0,0 km/h (0 Bft) S-SO 157 0 min 3,6 C 6,5 C 2,3 km/h (1 Bft)
28.03.2018 21:45 5,5 C 5,8 C 6,6 C 6,5 C 6,5 C 1,0 C 87 % 79 % 1001,6 hPa 0,0 l/m 0,3 km/h (0 Bft) S-SO 157 0 min 3,5 C 6,5 C 1,6 km/h (1 Bft)
28.03.2018 21:50 5,5 C 5,8 C 6,7 C 6,6 C 6,6 C 1,1 C 87 % 79 % 1001,6 hPa 0,0 l/m 1,3 km/h (1 Bft) S-SW 202 0 min 3,5 C 6,6 C 2,1 km/h (1 Bft)
28.03.2018 21:55 5,6 C 5,9 C 6,8 C 6,7 C 6,7 C 1,1 C 87 % 79 % 1001,5 hPa 0,0 l/m 2,6 km/h (1 Bft) O-SO 112 0 min 3,6 C 6,7 C 0,0 km/h (0 Bft)
28.03.2018 22:00 5,5 C 5,9 C 6,7 C 6,7 C 6,7 C 1,2 C 87 % 78 % 1001,5 hPa 0,0 l/m 1,9 km/h (1 Bft) O 90 0 min 3,5 C 6,7 C 2,3 km/h (1 Bft)
28.03.2018 22:05 5,5 C 5,9 C 6,7 C 6,6 C 6,6 C 1,1 C 87 % 79 % 1001,5 hPa 0,0 l/m 0,2 km/h (0 Bft) O-NO 67 0 min 3,5 C 6,6 C 0,0 km/h (0 Bft)
28.03.2018 22:10 5,5 C 5,9 C 6,6 C 6,6 C 6,6 C 1,1 C 87 % 79 % 1001,5 hPa 0,0 l/m 0,0 km/h (0 Bft) O-NO 67 0 min 3,5 C 6,6 C 0,0 km/h (0 Bft)
28.03.2018 22:15 5,5 C 5,9 C 6,7 C 6,6 C 6,6 C 1,1 C 87 % 78 % 1001,4 hPa 0,0 l/m 0,2 km/h (0 Bft) W-SW 247 0 min 3,5 C 6,6 C 2,3 km/h (1 Bft)
28.03.2018 22:20 5,5 C 5,9 C 6,7 C 6,5 C 6,5 C 1,0 C 87 % 78 % 1001,4 hPa 0,7 l/m 0,3 km/h (0 Bft) O-NO 67 0 min 3,5 C 6,5 C 0,0 km/h (0 Bft)
28.03.2018 22:25 5,5 C 5,9 C 6,6 C 6,5 C 6,5 C 1,0 C 87 % 78 % 1001,4 hPa 0,0 l/m 0,2 km/h (0 Bft) O-NO 67 0 min 3,5 C 6,5 C 0,0 km/h (0 Bft)
28.03.2018 22:30 5,5 C 5,9 C 6,7 C 6,5 C 6,5 C 1,0 C 87 % 78 % 1001,4 hPa 0,0 l/m 0,0 km/h (0 Bft) O-NO 67 0 min 3,5 C 6,5 C 0,0 km/h (0 Bft)
28.03.2018 22:35 5,5 C 5,9 C 6,6 C 6,5 C 6,5 C 1,0 C 87 % 78 % 1000,7 hPa 0,0 l/m 0,0 km/h (0 Bft) NO 45 0 min 3,5 C 6,5 C 0,0 km/h (0 Bft)
28.03.2018 22:40 5,4 C 5,9 C 6,7 C 6,5 C 6,5 C 1,1 C 87 % 78 % 1000,7 hPa 0,0 l/m 0,0 km/h (0 Bft) O-NO 67 0 min 3,4 C 6,5 C 0,0 km/h (0 Bft)
28.03.2018 22:45 5,4 C 5,9 C 6,7 C 6,4 C 6,4 C 1,0 C 87 % 78 % 1000,7 hPa 0,0 l/m 0,2 km/h (0 Bft) O 90 0 min 3,4 C 6,4 C 0,0 km/h (0 Bft)
28.03.2018 22:50 5,4 C 5,9 C 6,7 C 6,4 C 6,4 C 1,0 C 87 % 78 % 1000,7 hPa 0,7 l/m 0,2 km/h (0 Bft) O-NO 67 0 min 3,4 C 6,4 C 1,8 km/h (1 Bft)
28.03.2018 22:55 5,3 C 5,9 C 6,7 C 6,4 C 6,4 C 1,1 C 88 % 77 % 1000,2 hPa 0,0 l/m 0,6 km/h (0 Bft) O-SO 112 0 min 3,5 C 6,4 C 0,0 km/h (0 Bft)
28.03.2018 23:00 5,3 C 5,9 C 6,7 C 6,4 C 6,4 C 1,1 C 87 % 77 % 1000,2 hPa 0,0 l/m 0,6 km/h (0 Bft) O-NO 67 0 min 3,3 C 6,4 C 0,0 km/h (0 Bft)
28.03.2018 23:05 5,3 C 5,9 C 6,6 C 6,4 C 6,4 C 1,1 C 87 % 78 % 1000,2 hPa 0,0 l/m 0,0 km/h (0 Bft) N-NO 22 0 min 3,3 C 6,4 C 0,0 km/h (0 Bft)
28.03.2018 23:10 5,3 C 5,9 C 6,6 C 6,4 C 6,4 C 1,1 C 87 % 78 % 1000,2 hPa 0,0 l/m 0,0 km/h (0 Bft) O-NO 67 0 min 3,3 C 6,4 C 0,0 km/h (0 Bft)
28.03.2018 23:15 5,3 C 5,9 C 6,6 C 6,4 C 6,4 C 1,1 C 88 % 78 % 1000,2 hPa 0,0 l/m 0,0 km/h (0 Bft) O 90 0 min 3,5 C 6,4 C 0,0 km/h (0 Bft)
28.03.2018 23:20 5,2 C 5,9 C 6,7 C 6,4 C 6,4 C 1,2 C 88 % 78 % 1000,2 hPa 0,0 l/m 0,0 km/h (0 Bft) O-SO 112 0 min 3,4 C 6,4 C 0,0 km/h (0 Bft)
28.03.2018 23:25 5,2 C 5,9 C 6,7 C 6,4 C 6,4 C 1,2 C 88 % 78 % 1000,2 hPa 0,7 l/m 0,0 km/h (0 Bft) SO 135 0 min 3,4 C 6,4 C 0,0 km/h (0 Bft)
28.03.2018 23:30 5,2 C 5,9 C 6,6 C 6,4 C 6,4 C 1,2 C 88 % 78 % 1000,2 hPa 0,0 l/m 0,0 km/h (0 Bft) O-SO 112 0 min 3,4 C 6,4 C 0,0 km/h (0 Bft)
28.03.2018 23:35 5,2 C 5,9 C 6,5 C 6,4 C 6,4 C 1,2 C 88 % 78 % 999,9 hPa 0,0 l/m 0,2 km/h (0 Bft) S 180 0 min 3,4 C 6,4 C 1,9 km/h (1 Bft)
28.03.2018 23:40 5,2 C 5,9 C 6,6 C 6,4 C 6,4 C 1,2 C 88 % 78 % 999,9 hPa 0,0 l/m 0,5 km/h (0 Bft) SW 225 0 min 3,4 C 6,4 C 2,3 km/h (1 Bft)
28.03.2018 23:45 5,2 C 5,9 C 6,5 C 6,3 C 6,3 C 1,1 C 88 % 77 % 999,9 hPa 0,0 l/m 0,6 km/h (0 Bft) SO 135 0 min 3,4 C 6,3 C 0,0 km/h (0 Bft)
28.03.2018 23:50 5,2 C 5,9 C 6,5 C 6,3 C 6,3 C 1,1 C 88 % 77 % 999,9 hPa 0,0 l/m 0,3 km/h (0 Bft) SW 225 0 min 3,4 C 6,3 C 0,0 km/h (0 Bft)
28.03.2018 23:55 5,3 C 5,9 C 6,4 C 6,3 C 6,3 C 1,0 C 88 % 77 % 999,6 hPa 0,0 l/m 0,0 km/h (0 Bft) O-NO 67 0 min 3,5 C 6,3 C 0,0 km/h (0 Bft)
_ Min-Zeit 01:20 05:40 00:00 01:10 01:55 00:00 00:00 22:55 23:55 - 00:00 - - - 00:05 01:55 00:00
Minimum _ 3,3 C 4,5 C 2,9 C 3,2 C 2,8 C 0,0 C 76 % 77 % 999,6 hPa - 0,0 km/h (0 Bft) - - - -0,4 C 2,8 C 0,0 km/h (0 Bft)
_ Max-Zeit 13:25 21:55 15:45 15:55 15:55 15:55 22:55 09:05 00:15 15:30 13:20 - - 19:00 16:05 15:55 10:55
Maximum _ 8,0 C 5,9 C 8,8 C 9,5 C 9,5 C 1,8 C 88 % 88 % 1011,8 hPa 0,7 l/m 5,6 km/h
S-SW (1 Bft)
- - 5 min 5,7 C 9,5 C 12,1 km/h
S (2 Bft)
Durchschnitt _ 5,6 C 5,1 C 5,9 C 6,1 C 6,0 C 0,5 C 84 % 85 % 1006,4 hPa #4,8 l/m 0,9 km/h (0 Bft) S - #25 min. 3,0 C 6,0 C 1,4 km/h (1 Bft)
2018 www.wetterstation-wechselburg.de